Location: Aalen
(48.8330°N, 10.1000°E)
Time: 19:46:53
(UTC+02:00)

UNISAT 6 - Pass Details

Date: 05 April 2023
Orbit: 599 x 680 km, 97.7° (Epoch: 04 June)

Event Time Altitude Azimuth Distance (km) Brightness Sun altitude
Rises 20:33:59 0° 360° (N) 3,056 ? -6.9°
Reaches altitude 10° 20:36:55 10° 341° (NNW) 2,136 ? -7.4°
Maximum altitude 20:39:52 17° 301° (WNW) 1,709 ? -7.8°
Drops below altitude 10° 20:42:49 10° 262° (W) 2,119 ? -8.3°
Sets 20:45:43 0° 242° (WSW) 3,020 ? -8.7°
